{"data":{"norad_id":66966,"intl_designator":"2025-288H","name":"STARLINK-36139","alt_names":[],"object_type":"PAYLOAD","status":"ACTIVE","operator":null,"country":"US","launch_date":"2025-12-08","launch_site_code":"AFETR","launch_vehicle":null,"mission":null,"orbit_class":"UNKNOWN","rcs_meters":null,"size_class":null,"mass_kg":null,"dimensions":null,"purposes":["comms"],"wikipedia_slug":null,"has_3d_model":false,"image_url":null,"decayed_at":null,"tle_current":{"epoch":"2026-09-20T22:59:51.783936Z","epoch_age_seconds":41929,"freshness":"FRESH","line1":"1 66966U 25288H   26263.95823824  .00011187  00000+0  41522-3 0  9992","line2":"2 66966  43.0010   0.4680 0001957 279.4672  80.5958 15.27597484 45152","mean_motion":15.27597484,"eccentricity":0.0001957,"inclination_deg":43.001,"raan_deg":0.468,"arg_perigee_deg":279.4672,"mean_anomaly_deg":80.5958,"bstar":0.00041522,"rev_number":4515,"period_min":94.265669790799,"perigee_km":481.65401927962,"apogee_km":484.33946702669,"semimajor_km":6861.1337431532,"source":"CELESTRAK","updated_at":"2026-09-21T09:00:36.063418Z"}}}